User: anonymous   Login
Location: Caltech
(34.1382°N, 118.1253°W)
Time: 08:53:07
(UTC-07:00)
Language:

Gbstr 26 Del rocket - Orbit

View from above orbital plane
View from above orbital plane
View from above satellite
View from above satellite

Ground track
Ground track

The orbit data is extracted from the following two-line orbital elements,

1 25876U 99041E   17232.82814548 -.00000006 +00000-0 +38738-4 0  9996
2 25876 051.7668 061.8245 0531106 216.3641 140.0086 14.04072922923686
Epoch (UTC): 20 August 2017 19:52:31
Eccentricity: 0.0531106
inclination: 51.7668°
perigee height: 494 km
apogee height: 1265 km
right ascension of ascending node: 61.8245°
argument of perigee: 216.3641°
revolutions per day: 14.04072922
mean anomaly at epoch: 140.0086°
orbit number at epoch: 92368

The dashed part of the orbit path shows where the satellite is in the earth's shadow,  

DLR